QPF
0.00 0.00 0.00 0.00 0.00 0.00 0.00 0.00 0.00 0.00 0.00 0.00 0.00 0.00 0.00 0.00 0.00 0.00 0.00 0.00 0.00 0.00 0.00 0.00 0.01 0.02 0.02 0.01 0.00 0.01 0.01 0.02 0.03 0.02 0.02 0.02 0.02 0.03 0.02 0.01 0.01 0.00 0.00 0.00
0.00 0.00 0.00 0.00 0.00 0.00 0.00 0.00 0.00 0.00 0.00 0.00 0.00 0.00 0.00 0.00 0.00 0.00 0.00 0.00 0.00 0.01 0.01 0.01 0.02 0.02 0.02 0.01 0.00 0.01 0.01 0.01 0.01 0.02 0.02 0.02 0.02 0.02 0.02 0.03 0.02 0.00 0.00 0.00
0.00 0.00 0.00 0.00 0.00 0.00 0.00 0.00 0.00 0.00 0.00 0.00 0.00 0.00 0.00 0.00 0.00 0.00 0.00 0.00 0.00 0.00 0.01 0.01 0.01 0.02 0.02 0.01 0.01 0.01 0.02 0.01 0.01 0.01 0.02 0.02 0.02 0.01 0.02 0.03 0.02 0.01 0.00 0.00
0.00 0.00 0.00 0.00 0.00 0.00 0.00 0.00 0.00 0.00 0.00 0.00 0.00 0.00 0.00 0.00 0.00 0.00 0.00 0.00 0.00 0.00 0.01 0.01 0.01 0.01 0.01 0.01 0.01 0.01 0.01 0.01 0.02 0.02 0.02 0.02 0.02 0.02 0.02 0.02 0.01 0.01 0.01 0.00
0.00 0.00 0.00 0.00 0.00 0.00 0.00 0.00 0.00 0.00 0.00 0.00 0.00 0.00 0.00 0.00 0.00 0.00 0.00 0.01 0.01 0.01 0.01 0.02 0.02 0.02 0.02 0.02 0.01 0.01 0.01 0.02 0.03 0.03 0.03 0.03 0.03 0.02 0.02 0.01 0.01 0.01 0.01 0.00
0.00 0.00 0.00 0.00 0.00 0.00 0.00 0.00 0.00 0.00 0.00 0.00 0.00 0.01 0.00 0.01 0.00 0.01 0.01 0.01 0.01 0.01 0.01 0.01 0.01 0.01 0.01 0.01 0.01 0.01 0.01 0.01 0.01 0.02 0.03 0.04 0.04 0.04 0.02 0.02 0.01 0.01 0.00 0.00
0.00 0.00 0.00 0.00 0.00 0.00 0.00 0.00 0.00 0.00 0.00 0.00 0.00 0.00 0.01 0.01 0.01 0.01 0.01 0.01 0.01 0.01 0.01 0.01 0.01 0.01 0.01 0.01 0.01 0.01 0.01 0.01 0.01 0.01 0.02 0.03 0.03 0.03 0.02 0.02 0.01 0.01 0.01 0.00
0.01 0.01 0.00 0.00 0.00 0.00 0.00 0.00 0.00 0.00 0.00 0.00 0.00 0.00 0.01 0.01 0.01 0.00 0.01 0.01 0.01 0.01 0.01 0.01 0.01 0.01 0.01 0.01 0.01 0.01 0.01 0.01 0.02 0.02 0.02 0.02 0.02 0.02 0.02 0.03 0.03 0.02 0.01 0.00
0.00 0.00 0.00 0.00 0.00 0.00 0.00 0.00 0.00 0.00 0.00 0.00 0.01 0.01 0.01 0.01 0.01 0.01 0.01 0.01 0.00 0.00 0.01 0.01 0.01 0.01 0.02 0.02 0.02 0.02 0.01 0.01 0.02 0.03 0.03 0.03 0.03 0.03 0.03 0.03 0.03 0.02 0.01 0.00
0.00 0.00 0.00 0.00 0.00 0.00 0.00 0.00 0.00 0.00 0.00 0.00 0.01 0.01 0.01 0.01 0.01 0.01 0.01 0.01 0.01 0.01 0.01 0.01 0.02 0.01 0.02 0.02 0.02 0.02 0.01 0.01 0.02 0.04 0.05 0.05 0.03 0.02 0.02 0.03 0.03 0.03 0.02 0.01
0.01 0.00 0.00 0.00 0.00 0.00 0.00 0.00 0.00 0.00 0.00 0.01 0.01 0.01 0.01 0.01 0.01 0.01 0.00 0.00 0.01 0.01 0.01 0.01 0.01 0.01 0.01 0.01 0.01 0.01 0.01 0.01 0.01 0.03 0.05 0.04 0.03 0.02 0.02 0.02 0.03 0.03 0.03 0.03
0.01 0.01 0.01 0.00 0.00 0.00 0.00 0.00 0.00 0.01 0.01 0.01 0.01 0.01 0.01 0.01 0.01 0.01 0.01 0.01 0.01 0.02 0.02 0.02 0.01 0.01 0.01 0.01 0.01 0.02 0.02 0.03 0.03 0.03 0.03 0.03 0.02 0.02 0.02 0.02 0.02 0.03 0.03 0.03
0.01 0.00 0.00 0.00 0.00 0.01 0.01 0.01 0.01 0.00 0.00 0.01 0.01 0.01 0.01 0.01 0.01 0.01 0.01 0.01 0.01 0.01 0.02 0.02 0.02 0.02 0.02 0.01 0.02 0.03 0.03 0.03 0.04 0.07 0.05 0.04 0.03 0.03 0.03 0.03 0.03 0.03 0.03 0.02
0.01 0.01 0.01 0.01 0.01 0.01 0.02 0.01 0.01 0.00 0.01 0.01 0.01 0.01 0.01 0.01 0.01 0.02 0.01 0.01 0.01 0.01 0.02 0.02 0.02 0.03 0.03 0.02 0.03 0.04 0.04 0.04 0.03 0.05 0.09 0.07 0.05 0.06 0.05 0.05 0.04 0.03 0.03 0.03
0.02 0.02 0.02 0.01 0.01 0.01 0.01 0.01 0.01 0.00 0.00 0.01 0.01 0.02 0.02 0.02 0.02 0.02 0.02 0.02 0.02 0.01 0.02 0.02 0.03 0.03 0.04 0.04 0.05 0.05 0.05 0.05 0.05 0.06 0.06 0.07 0.05 0.04 0.05 0.05 0.03 0.02 0.02 0.03
0.03 0.02 0.02 0.01 0.01 0.01 0.01 0.01 0.01 0.01 0.01 0.01 0.02 0.02 0.03 0.02 0.02 0.02 0.02 0.02 0.02 0.02 0.02 0.02 0.03 0.03 0.04 0.04 0.05 0.06 0.06 0.05 0.05 0.05 0.05 0.04 0.04 0.04 0.03 0.03 0.02 0.02 0.02 0.02
0.02 0.02 0.01 0.01 0.01 0.01 0.01 0.01 0.01 0.01 0.01 0.02 0.02 0.04 0.05 0.04 0.04 0.04 0.03 0.03 0.02 0.02 0.04 0.05 0.03 0.03 0.03 0.04 0.05 0.07 0.08 0.07 0.06 0.04 0.04 0.04 0.04 0.04 0.04 0.03 0.03 0.02 0.02 0.02
0.02 0.01 0.01 0.01 0.02 0.02 0.01 0.01 0.01 0.01 0.02 0.03 0.03 0.03 0.03 0.02 0.03 0.03 0.02 0.02 0.02 0.01 0.03 0.06 0.05 0.03 0.03 0.04 0.05 0.06 0.07 0.08 0.07 0.07 0.06 0.05 0.04 0.04 0.04 0.04 0.04 0.03 0.03 0.04
0.01 0.01 0.01 0.01 0.01 0.02 0.01 0.01 0.01 0.02 0.03 0.03 0.02 0.02 0.02 0.02 0.02 0.02 0.02 0.02 0.02 0.02 0.02 0.04 0.06 0.04 0.03 0.03 0.04 0.04 0.04 0.04 0.05 0.07 0.07 0.07 0.06 0.05 0.04 0.04 0.03 0.03 0.03 0.04
0.01 0.01 0.01 0.01 0.02 0.02 0.02 0.02 0.02 0.03 0.03 0.03 0.03 0.03 0.02 0.02 0.02 0.02 0.03 0.03 0.03 0.04 0.03 0.03 0.05 0.04 0.03 0.03 0.04 0.04 0.04 0.04 0.03 0.03 0.03 0.03 0.03 0.02 0.02 0.02 0.02 0.03 0.03 0.03
0.02 0.02 0.02 0.02 0.02 0.03 0.03 0.03 0.03 0.04 0.03 0.03 0.03 0.03 0.02 0.02 0.03 0.02 0.03 0.03 0.05 0.06 0.04 0.04 0.04 0.04 0.04 0.03 0.03 0.03 0.04 0.04 0.03 0.03 0.03 0.03 0.02 0.02 0.02 0.03 0.03 0.03 0.03 0.03
0.03 0.03 0.03 0.03 0.03 0.03 0.04 0.04 0.03 0.04 0.03 0.03 0.03 0.03 0.03 0.03 0.03 0.03 0.03 0.03 0.04 0.04 0.04 0.05 0.05 0.05 0.04 0.04 0.03 0.03 0.04 0.04 0.04 0.05 0.06 0.06 0.05 0.04 0.04 0.04 0.04 0.04 0.04 0.04
0.03 0.03 0.04 0.04 0.03 0.03 0.04 0.04 0.04 0.03 0.04 0.04 0.05 0.05 0.05 0.06 0.07 0.06 0.04 0.03 0.03 0.03 0.04 0.04 0.03 0.03 0.03 0.03 0.02 0.02 0.02 0.03 0.04 0.06 0.08 0.09 0.10 0.08 0.07 0.05 0.05 0.05 0.05 0.04
0.04 0.04 0.03 0.04 0.04 0.04 0.04 0.04 0.03 0.03 0.04 0.05 0.07 0.09 0.08 0.06 0.06 0.06 0.04 0.03 0.03 0.02 0.02 0.02 0.02 0.02 0.02 0.02 0.02 0.02 0.01 0.02 0.03 0.04 0.06 0.07 0.08 0.09 0.08 0.07 0.06 0.05 0.05 0.05
0.04 0.04 0.04 0.04 0.04 0.04 0.04 0.03 0.03 0.03 0.03 0.05 0.08 0.08 0.06 0.05 0.05 0.05 0.04 0.04 0.04 0.04 0.02 0.02 0.03 0.03 0.02 0.02 0.01 0.01 0.02 0.02 0.02 0.03 0.03 0.04 0.04 0.05 0.05 0.05 0.06 0.06 0.05 0.05
0.03 0.03 0.04 0.04 0.03 0.04 0.04 0.04 0.03 0.03 0.03 0.03 0.04 0.05 0.04 0.04 0.03 0.03 0.02 0.03 0.04 0.04 0.04 0.04 0.04 0.03 0.03 0.02 0.03 0.03 0.02 0.02 0.02 0.02 0.02 0.03 0.03 0.02 0.02 0.02 0.02 0.03 0.03 0.03
0.03 0.03 0.04 0.04 0.03 0.02 0.02 0.03 0.03 0.03 0.02 0.02 0.03 0.05 0.04 0.04 0.03 0.03 0.03 0.04 0.05 0.05 0.05 0.04 0.04 0.03 0.03 0.03 0.04 0.03 0.01 0.01 0.01 0.01 0.02 0.02 0.02 0.02 0.02 0.02 0.03 0.03 0.03 0.03
MSLP
1007.56 1007.30 1007.07 1006.89 1006.75 1006.67 1006.61 1006.54 1006.43 1006.27 1006.03 1005.73 1005.38 1005.01 1004.65 1004.31 1004.00 1003.74 1003.51 1003.29 1003.09 1002.89 1002.70 1002.55 1002.47 1002.49 1002.64 1002.94 1003.38 1003.94 1004.57 1005.23 1005.86 1006.43 1006.91 1007.28 1007.58 1007.83 1008.07 1008.34 1008.67 1009.08 1009.54 1010.05
1007.83 1007.51 1007.17 1006.85 1006.56 1006.32 1006.14 1006.02 1005.92 1005.83 1005.75 1005.65 1005.53 1005.39 1005.23 1005.04 1004.81 1004.56 1004.26 1003.93 1003.57 1003.20 1002.85 1002.55 1002.34 1002.27 1002.35 1002.60 1003.00 1003.53 1004.14 1004.77 1005.39 1005.95 1006.42 1006.81 1007.12 1007.40 1007.68 1007.99 1008.36 1008.79 1009.28 1009.80
1008.01 1007.67 1007.28 1006.86 1006.47 1006.14 1005.88 1005.71 1005.62 1005.60 1005.63 1005.69 1005.75 1005.79 1005.78 1005.70 1005.53 1005.28 1004.93 1004.50 1004.01 1003.50 1003.01 1002.58 1002.27 1002.10 1002.11 1002.30 1002.66 1003.14 1003.71 1004.32 1004.91 1005.45 1005.92 1006.31 1006.66 1006.97 1007.28 1007.62 1008.02 1008.47 1008.96 1009.48
1008.08 1007.76 1007.36 1006.92 1006.49 1006.11 1005.81 1005.62 1005.54 1005.56 1005.67 1005.83 1006.01 1006.16 1006.25 1006.24 1006.11 1005.85 1005.45 1004.95 1004.37 1003.74 1003.14 1002.61 1002.21 1001.96 1001.89 1002.01 1002.30 1002.72 1003.23 1003.79 1004.34 1004.85 1005.31 1005.72 1006.08 1006.42 1006.77 1007.14 1007.56 1008.02 1008.51 1009.01
1008.04 1007.76 1007.40 1006.98 1006.57 1006.19 1005.89 1005.70 1005.62 1005.67 1005.82 1006.02 1006.26 1006.47 1006.60 1006.62 1006.50 1006.23 1005.81 1005.25 1004.60 1003.90 1003.22 1002.61 1002.12 1001.79 1001.64 1001.67 1001.87 1002.21 1002.64 1003.12 1003.62 1004.10 1004.54 1004.95 1005.34 1005.71 1006.09 1006.49 1006.93 1007.40 1007.88 1008.37
1007.88 1007.67 1007.37 1007.03 1006.66 1006.33 1006.06 1005.89 1005.82 1005.88 1006.03 1006.24 1006.48 1006.70 1006.83 1006.85 1006.73 1006.44 1005.99 1005.40 1004.71 1003.97 1003.23 1002.56 1002.00 1001.58 1001.34 1001.28 1001.37 1001.60 1001.93 1002.33 1002.76 1003.19 1003.62 1004.03 1004.43 1004.84 1005.26 1005.70 1006.16 1006.64 1007.13 1007.60
1007.65 1007.50 1007.28 1007.02 1006.75 1006.48 1006.27 1006.13 1006.08 1006.13 1006.26 1006.45 1006.66 1006.84 1006.95 1006.95 1006.80 1006.50 1006.04 1005.43 1004.73 1003.96 1003.19 1002.47 1001.85 1001.36 1001.02 1000.85 1000.83 1000.94 1001.16 1001.46 1001.81 1002.19 1002.59 1003.01 1003.43 1003.87 1004.34 1004.82 1005.33 1005.84 1006.35 1006.83
1007.37 1007.27 1007.14 1006.97 1006.79 1006.61 1006.46 1006.36 1006.33 1006.37 1006.47 1006.61 1006.77 1006.90 1006.97 1006.93 1006.76 1006.44 1005.97 1005.37 1004.67 1003.91 1003.13 1002.38 1001.70 1001.14 1000.71 1000.43 1000.30 1000.29 1000.40 1000.60 1000.87 1001.21 1001.58 1002.00 1002.45 1002.93 1003.45 1003.98 1004.54 1005.10 1005.64 1006.16
1007.06 1007.01 1006.95 1006.88 1006.79 1006.69 1006.61 1006.55 1006.53 1006.55 1006.61 1006.70 1006.80 1006.87 1006.88 1006.81 1006.61 1006.29 1005.84 1005.26 1004.58 1003.83 1003.06 1002.30 1001.60 1000.98 1000.47 1000.10 999.86 999.75 999.75 999.86 1000.07 1000.35 1000.70 1001.12 1001.60 1002.12 1002.69 1003.29 1003.90 1004.51 1005.11 1005.66
1006.77 1006.74 1006.74 1006.74 1006.73 1006.70 1006.67 1006.64 1006.63 1006.63 1006.66 1006.69 1006.73 1006.74 1006.71 1006.60 1006.40 1006.09 1005.66 1005.12 1004.48 1003.77 1003.02 1002.27 1001.56 1000.91 1000.36 999.91 999.59 999.39 999.31 999.34 999.49 999.73 1000.06 1000.48 1000.97 1001.53 1002.14 1002.78 1003.45 1004.11 1004.76 1005.36
1006.50 1006.49 1006.52 1006.57 1006.61 1006.63 1006.63 1006.62 1006.60 1006.58 1006.56 1006.55 1006.53 1006.50 1006.43 1006.31 1006.11 1005.83 1005.44 1004.95 1004.37 1003.72 1003.02 1002.31 1001.61 1000.96 1000.38 999.90 999.52 999.26 999.12 999.10 999.19 999.40 999.71 1000.11 1000.61 1001.18 1001.81 1002.48 1003.17 1003.87 1004.55 1005.18
1006.27 1006.26 1006.30 1006.36 1006.42 1006.46 1006.47 1006.45 1006.40 1006.35 1006.29 1006.24 1006.18 1006.12 1006.04 1005.92 1005.74 1005.49 1005.16 1004.75 1004.25 1003.67 1003.05 1002.39 1001.74 1001.12 1000.55 1000.06 999.66 999.37 999.19 999.13 999.19 999.35 999.63 1000.01 1000.48 1001.03 1001.64 1002.31 1003.00 1003.70 1004.38 1005.01
1006.05 1006.04 1006.07 1006.12 1006.17 1006.18 1006.17 1006.11 1006.04 1005.94 1005.84 1005.75 1005.66 1005.58 1005.50 1005.40 1005.26 1005.07 1004.82 1004.48 1004.07 1003.59 1003.05 1002.48 1001.90 1001.33 1000.80 1000.34 999.95 999.66 999.46 999.38 999.40 999.52 999.75 1000.08 1000.50 1001.00 1001.56 1002.18 1002.82 1003.48 1004.12 1004.73
1005.85 1005.82 1005.82 1005.84 1005.84 1005.81 1005.73 1005.63 1005.49 1005.35 1005.21 1005.08 1004.97 1004.89 1004.82 1004.75 1004.66 1004.54 1004.37 1004.12 1003.81 1003.43 1003.00 1002.53 1002.03 1001.54 1001.08 1000.66 1000.31 1000.04 999.85 999.74 999.73 999.81 999.99 1000.25 1000.58 1001.00 1001.47 1002.00 1002.56 1003.14 1003.71 1004.26
1005.63 1005.58 1005.55 1005.51 1005.45 1005.34 1005.19 1005.01 1004.81 1004.60 1004.41 1004.25 1004.13 1004.05 1004.00 1003.97 1003.93 1003.88 1003.79 1003.64 1003.43 1003.16 1002.83 1002.47 1002.07 1001.68 1001.30 1000.95 1000.65 1000.41 1000.23 1000.13 1000.09 1000.13 1000.23 1000.41 1000.65 1000.95 1001.31 1001.72 1002.17 1002.64 1003.11 1003.57
1005.41 1005.34 1005.26 1005.16 1005.01 1004.82 1004.58 1004.31 1004.02 1003.75 1003.51 1003.31 1003.17 1003.09 1003.06 1003.07 1003.09 1003.09 1003.08 1003.02 1002.90 1002.73 1002.51 1002.25 1001.97 1001.67 1001.38 1001.12 1000.88 1000.69 1000.54 1000.44 1000.38 1000.37 1000.41 1000.49 1000.63 1000.82 1001.05 1001.33 1001.65 1002.00 1002.36 1002.72
1005.18 1005.09 1004.97 1004.81 1004.57 1004.28 1003.95 1003.58 1003.21 1002.87 1002.57 1002.33 1002.17 1002.09 1002.07 1002.09 1002.15 1002.21 1002.26 1002.27 1002.23 1002.16 1002.03 1001.87 1001.69 1001.49 1001.30 1001.12 1000.96 1000.82 1000.70 1000.61 1000.54 1000.49 1000.47 1000.48 1000.51 1000.59 1000.70 1000.85 1001.05 1001.27 1001.52 1001.78
1004.98 1004.89 1004.73 1004.50 1004.18 1003.80 1003.37 1002.90 1002.45 1002.03 1001.67 1001.39 1001.20 1001.09 1001.07 1001.10 1001.18 1001.27 1001.36 1001.42 1001.45 1001.44 1001.40 1001.33 1001.24 1001.14 1001.03 1000.94 1000.85 1000.77 1000.69 1000.62 1000.54 1000.47 1000.41 1000.34 1000.30 1000.28 1000.29 1000.33 1000.41 1000.54 1000.69 1000.86
1004.85 1004.75 1004.56 1004.27 1003.89 1003.42 1002.90 1002.35 1001.82 1001.32 1000.90 1000.56 1000.33 1000.20 1000.15 1000.17 1000.25 1000.34 1000.45 1000.54 1000.61 1000.65 1000.67 1000.67 1000.66 1000.63 1000.61 1000.59 1000.57 1000.54 1000.51 1000.46 1000.40 1000.31 1000.21 1000.10 1000.00 999.90 999.83 999.79 999.80 999.84 999.91 1000.02
1004.79 1004.70 1004.48 1004.15 1003.71 1003.17 1002.57 1001.95 1001.35 1000.79 1000.30 999.92 999.64 999.46 999.38 999.37 999.42 999.50 999.59 999.69 999.78 999.85 999.91 999.96 1000.01 1000.05 1000.09 1000.14 1000.17 1000.20 1000.20 1000.17 1000.12 1000.03 999.91 999.77 999.63 999.48 999.36 999.26 999.21 999.19 999.21 999.27
1004.81 1004.71 1004.48 1004.11 1003.63 1003.04 1002.39 1001.72 1001.06 1000.45 999.91 999.47 999.14 998.92 998.79 998.73 998.74 998.78 998.85 998.94 999.02 999.10 999.19 999.27 999.36 999.45 999.54 999.64 999.72 999.78 999.81 999.80 999.75 999.66 999.53 999.37 999.20 999.02 998.86 998.73 998.63 998.58 998.57 998.59
1004.85 1004.75 1004.50 1004.11 1003.60 1002.98 1002.31 1001.61 1000.91 1000.27 999.70 999.22 998.85 998.58 998.39 998.29 998.24 998.24 998.27 998.33 998.39 998.47 998.56 998.66 998.78 998.90 999.02 999.15 999.26 999.34 999.38 999.38 999.33 999.23 999.09 998.92 998.72 998.53 998.34 998.19 998.07 997.99 997.95 997.95
1004.84 1004.72 1004.47 1004.07 1003.55 1002.93 1002.26 1001.55 1000.86 1000.21 999.63 999.13 998.73 998.41 998.19 998.03 997.93 997.88 997.87 997.88 997.92 997.99 998.07 998.17 998.30 998.43 998.58 998.71 998.83 998.92 998.97 998.96 998.90 998.79 998.64 998.45 998.23 998.02 997.82 997.65 997.52 997.42 997.36 997.34
1004.69 1004.56 1004.29 1003.90 1003.40 1002.81 1002.16 1001.49 1000.83 1000.21 999.64 999.14 998.73 998.39 998.13 997.93 997.78 997.68 997.62 997.60 997.61 997.65 997.72 997.82 997.94 998.08 998.22 998.36 998.48 998.56 998.60 998.58 998.51 998.38 998.21 998.00 997.78 997.55 997.34 997.16 997.01 996.90 996.82 996.78
1004.33 1004.18 1003.92 1003.55 1003.08 1002.54 1001.95 1001.35 1000.76 1000.19 999.67 999.20 998.80 998.46 998.17 997.94 997.75 997.61 997.51 997.44 997.42 997.43 997.49 997.57 997.69 997.82 997.96 998.09 998.21 998.28 998.30 998.28 998.19 998.05 997.86 997.65 997.41 997.18 996.96 996.77 996.61 996.49 996.40 996.34
1003.72 1003.56 1003.31 1002.97 1002.57 1002.11 1001.62 1001.11 1000.61 1000.13 999.69 999.27 998.90 998.57 998.28 998.02 997.81 997.63 997.49 997.38 997.33 997.31 997.34 997.41 997.52 997.65 997.78 997.91 998.01 998.08 998.10 998.07 997.98 997.83 997.65 997.43 997.20 996.97 996.76 996.57 996.41 996.27 996.17 996.09
1002.88 1002.72 1002.50 1002.22 1001.90 1001.55 1001.17 1000.79 1000.41 1000.03 999.67 999.33 999.01 998.70 998.41 998.14 997.90 997.69 997.51 997.38 997.28 997.24 997.25 997.31 997.40 997.52 997.66 997.79 997.90 997.97 998.00 997.97 997.90 997.77 997.60 997.41 997.20 996.99 996.79 996.60 996.45 996.31 996.20 996.09
Thickness
5779 5789 5793 5790 5790 5792 5792 5796 5794 5801 5803 5809 5813 5813 5816 5817 5818 5817 5815 5813 5812 5810 5809 5808 5807 5805 5803 5801 5799 5797 5792 5788 5785 5782 5778 5775 5772 5769 5767 5764 5762 5758 5756 5754
5761 5774 5778 5777 5784 5788 5789 5792 5795 5797 5799 5812 5813 5812 5810 5810 5810 5809 5808 5807 5806 5805 5803 5802 5801 5799 5798 5796 5794 5792 5788 5784 5781 5778 5774 5771 5769 5766 5763 5760 5758 5755 5753 5751
5748 5761 5761 5756 5774 5779 5782 5790 5789 5785 5794 5801 5798 5798 5800 5801 5802 5802 5802 5801 5800 5799 5798 5797 5797 5795 5792 5791 5789 5787 5784 5780 5777 5774 5770 5768 5766 5763 5760 5757 5755 5752 5750 5747
5742 5741 5727 5760 5782 5782 5778 5781 5786 5787 5790 5791 5791 5795 5798 5800 5797 5795 5796 5795 5794 5794 5793 5794 5793 5791 5789 5787 5783 5781 5778 5775 5773 5770 5767 5764 5760 5758 5756 5754 5752 5749 5746 5744
5731 5729 5735 5751 5762 5767 5764 5763 5776 5776 5779 5782 5786 5785 5786 5792 5792 5791 5791 5790 5790 5790 5789 5787 5786 5785 5782 5779 5777 5773 5772 5770 5768 5765 5762 5758 5755 5753 5752 5750 5747 5745 5742 5739
5719 5716 5719 5742 5756 5763 5756 5747 5763 5765 5766 5770 5774 5768 5774 5782 5783 5783 5784 5784 5783 5783 5782 5780 5779 5778 5774 5772 5770 5768 5767 5765 5764 5761 5758 5754 5750 5748 5747 5745 5742 5741 5738 5735
5708 5710 5723 5739 5746 5747 5730 5738 5751 5756 5757 5759 5761 5764 5769 5773 5773 5774 5774 5776 5776 5775 5773 5772 5771 5769 5766 5765 5764 5763 5762 5760 5757 5755 5753 5750 5746 5743 5740 5739 5736 5733 5731 5730
5701 5699 5707 5727 5731 5726 5728 5736 5741 5745 5748 5749 5752 5755 5757 5759 5760 5763 5764 5766 5767 5765 5764 5764 5762 5760 5758 5757 5758 5757 5755 5752 5750 5748 5747 5745 5740 5737 5734 5732 5729 5726 5724 5723
5697 5700 5708 5717 5718 5720 5724 5725 5729 5734 5738 5740 5742 5744 5747 5748 5750 5752 5754 5755 5756 5756 5755 5755 5755 5753 5750 5750 5750 5748 5746 5744 5742 5741 5739 5737 5734 5730 5727 5725 5725 5723 5721 5719
5682 5691 5697 5702 5707 5709 5713 5716 5721 5725 5728 5730 5731 5733 5735 5737 5739 5740 5742 5744 5745 5745 5745 5745 5745 5744 5742 5742 5741 5739 5737 5735 5734 5732 5731 5729 5727 5725 5723 5721 5720 5718 5716 5714
5669 5677 5682 5689 5694 5698 5702 5707 5711 5714 5717 5719 5721 5722 5724 5726 5728 5730 5731 5733 5735 5735 5735 5736 5736 5735 5735 5733 5732 5730 5729 5728 5726 5725 5724 5721 5719 5718 5716 5715 5714 5710 5710 5708
5660 5667 5670 5675 5683 5688 5691 5695 5699 5702 5705 5708 5711 5711 5713 5715 5718 5719 5721 5723 5724 5725 5726 5727 5727 5726 5726 5725 5724 5722 5720 5719 5720 5719 5717 5715 5712 5709 5704 5704 5700 5697 5694 5693
5653 5658 5663 5667 5673 5677 5681 5686 5690 5693 5695 5698 5701 5704 5705 5706 5708 5710 5711 5713 5714 5715 5716 5717 5717 5716 5716 5716 5715 5714 5712 5712 5713 5712 5710 5708 5706 5704 5700 5695 5689 5687 5685 5682
5643 5646 5648 5654 5661 5667 5672 5677 5682 5685 5688 5691 5694 5696 5698 5699 5700 5700 5702 5704 5706 5707 5708 5709 5708 5707 5708 5708 5706 5706 5705 5705 5705 5704 5703 5702 5699 5697 5695 5693 5689 5686 5680 5676
5633 5638 5642 5648 5653 5658 5663 5668 5671 5675 5679 5683 5685 5687 5688 5689 5690 5692 5694 5697 5698 5698 5698 5698 5698 5698 5699 5699 5698 5698 5698 5699 5698 5698 5697 5695 5693 5690 5688 5686 5685 5683 5681 5675
5626 5632 5636 5640 5644 5649 5654 5658 5661 5666 5670 5674 5677 5678 5679 5681 5682 5684 5686 5688 5688 5689 5688 5688 5688 5690 5690 5690 5690 5690 5690 5688 5687 5688 5689 5687 5685 5683 5681 5679 5677 5677 5675 5673
5617 5622 5627 5630 5636 5641 5646 5650 5654 5658 5663 5666 5668 5670 5671 5672 5673 5674 5677 5679 5680 5680 5681 5681 5681 5681 5681 5682 5682 5683 5684 5681 5677 5679 5680 5679 5678 5676 5674 5673 5671 5670 5669 5667
5615 5619 5623 5626 5630 5634 5638 5643 5647 5650 5653 5657 5659 5660 5661 5663 5664 5666 5669 5671 5671 5671 5673 5674 5673 5673 5673 5673 5674 5676 5676 5675 5674 5673 5673 5671 5670 5669 5667 5666 5665 5663 5662 5660
5610 5614 5618 5622 5626 5629 5632 5635 5639 5643 5646 5649 5650 5651 5654 5656 5658 5659 5661 5661 5661 5661 5664 5665 5663 5664 5665 5666 5665 5665 5667 5667 5666 5666 5665 5661 5661 5661 5659 5658 5658 5656 5655 5654
5606 5610 5613 5616 5620 5623 5626 5629 5632 5636 5639 5641 5643 5644 5645 5648 5650 5651 5652 5652 5654 5657 5658 5657 5657 5658 5658 5658 5655 5658 5658 5658 5657 5657 5655 5655 5654 5653 5652 5651 5651 5651 5649 5647
5602 5605 5608 5610 5613 5617 5620 5623 5626 5629 5632 5634 5635 5636 5637 5639 5641 5642 5644 5646 5647 5648 5648 5647 5649 5650 5650 5649 5647 5650 5650 5649 5648 5648 5646 5646 5645 5644 5643 5642 5642 5641 5640 5638
5598 5601 5603 5605 5607 5610 5614 5617 5619 5621 5624 5626 5627 5629 5630 5630 5632 5634 5636 5637 5639 5637 5640 5642 5642 5640 5640 5639 5642 5642 5641 5641 5640 5639 5638 5638 5637 5637 5635 5634 5633 5632 5631 5629
5594 5597 5599 5601 5603 5605 5608 5611 5613 5615 5617 5618 5620 5621 5622 5623 5625 5626 5628 5630 5630 5628 5630 5633 5631 5629 5628 5631 5633 5633 5632 5632 5632 5632 5631 5630 5630 5629 5628 5627 5626 5624 5622 5620
5591 5593 5595 5598 5600 5601 5602 5604 5606 5608 5610 5611 5612 5613 5614 5616 5618 5620 5622 5619 5619 5619 5622 5620 5619 5618 5618 5623 5624 5624 5624 5624 5624 5624 5623 5623 5623 5621 5620 5619 5618 5616 5614 5612
5587 5589 5591 5592 5593 5595 5597 5599 5601 5602 5604 5605 5607 5607 5608 5609 5610 5611 5612 5612 5611 5611 5614 5613 5610 5610 5612 5614 5615 5615 5615 5615 5615 5615 5614 5614 5614 5613 5611 5610 5609 5607 5605 5603
5583 5585 5586 5587 5589 5591 5593 5594 5595 5596 5598 5599 5600 5601 5601 5602 5602 5603 5603 5604 5605 5603 5606 5607 5606 5604 5606 5606 5606 5607 5607 5607 5607 5607 5606 5605 5604 5604 5603 5602 5599 5598 5597 5595
5581 5582 5583 5585 5587 5588 5589 5589 5590 5591 5592 5592 5593 5593 5594 5594 5594 5595 5596 5597 5598 5598 5598 5598 5599 5599 5599 5599 5599 5599 5599 5599 5599 5598 5597 5596 5595 5594 5593 5591 5591 5589 5588 5586